Location: Tarleton Observatory
(32.2162°N, 98.0976°W)
Time: 01:38:09
(UTC-05:00)

Daily predictions for brighter satellites

Satellite Brightness Start Highest point End
(mag) Time Altitude Azimuth Time Altitude Azimuth Time Altitude Azimuth
Cosmos 2278 Rocket 4.4 00:00:57 10° NNW 00:02:46 21° N 00:02:46 21° N
CENTAUR R/B 4.2 00:11:52 10° NNW 00:17:32 34° NNE 00:17:32 34° NNE
USA 229 DEB 4.1 03:51:21 10° NNW 03:58:32 65° ENE 04:05:48 10° SE
USA 229 4.1 03:51:28 10° NNW 03:58:38 64° ENE 04:05:53 10° SE
COSMOS 2406 4.4 04:07:20 34° NNW 04:07:20 34° NNW 04:10:46 10° N
Resurs 1-4 Rocket 3.4 04:07:43 10° N 04:10:36 32° NNW 04:10:36 32° NNW
SL-16 R/B 3.3 04:18:25 41° NW 04:18:25 41° NW 04:22:25 10° NNW
ARIANE 5 R/B 3.7 04:19:03 10° N 04:22:14 35° NNW 04:22:14 35° NNW
CZ-2D R/B 3.4 04:25:32 10° N 04:28:34 29° NNW 04:28:34 29° NNW
Cosmos 1328 Rocket 4.5 04:37:57 43° NNE 04:37:57 43° NNE 04:40:55 10° N
Cosmos 2061 Rocket 4.0 04:43:52 48° S 04:45:51 82° E 04:52:18 10° N
Cosmos 773 Rocket 4.0 04:50:51 63° NW 04:50:51 63° NW 04:55:52 10° N
Cosmos 2082 Rocket 2.6 04:49:26 42° SSE 04:51:04 58° ESE 04:56:34 10° NNE
Cosmos 2016 Rocket 4.0 04:53:51 35° S 04:56:35 78° E 05:02:41 10° N
COSMOS 2487 3.3 04:59:47 50° NE 04:59:47 50° NE 05:02:39 10° NNE
ADEOS II 2.4 04:54:37 10° NNE 04:59:50 64° E 05:02:11 32° S
Tiangong 2 3.0 05:02:41 28° NNE 05:02:41 28° NNE 05:04:43 10° NE
Cosmos 1933 Rocket 3.8 04:58:30 10° N 05:02:57 67° E 05:04:58 31° SSE
Cosmos 1151 Rocket 2.8 05:05:00 83° WSW 05:05:05 84° W 05:09:23 10° N
Cosmos 1725 Rocket 4.2 05:05:50 16° S 05:10:46 70° E 05:16:54 10° N
PSLV R/B 4.0 05:09:44 10° NNE 05:13:53 74° E 05:15:08 43° S
Meteor 2-3 Rocket 4.0 05:09:13 10° N 05:14:51 67° E 05:20:32 10° SSE
CZ-4B R/B 4.1 05:09:56 10° NNE 05:15:09 45° E 05:20:13 10° S
Shenzhou-11 Module 4.1 05:15:35 20° NNW 05:15:35 20° NNW 05:17:48 10° NNE
Cosmos 2100 Rocket 4.4 05:14:37 40° WSW 05:15:59 45° W 05:22:03 10° N
Cosmos 1802 Rocket 4.0 05:14:06 39° SW 05:16:12 58° W 05:22:22 10° N
Cosmos 1892 2.9 05:15:34 10° N 05:19:24 71° E 05:21:58 20° SSE
Okean O Rocket 1.9 05:17:43 10° NNE 05:22:07 64° E 05:25:00 21° S
Cosmos 192 4.3 05:22:50 43° SW 05:24:15 62° WNW 05:29:11 10° N
Cosmos 1656 4.3 05:19:52 10° NNW 05:25:31 59° ENE 05:31:05 10° SSE
Cosmos 2369 3.8 05:20:10 10° NNW 05:25:50 79° ENE 05:31:28 10° SSE
Lacrosse 5 3.1 05:24:37 10° NNW 05:29:26 42° NE 05:34:14 10° ESE
Hubble Space Telescope 1.0 05:29:18 45° SSW 05:29:56 50° S 05:33:57 10° ESE
In-Cosmos 22 Rocket 4.4 05:25:33 10° NNW 05:30:35 44° W 05:32:47 29° SW
PAYLOAD B 4.3 05:26:08 10° NNE 05:31:45 78° ESE 05:37:15 10° S
Meteor 1-27 4.4 05:33:19 28° SW 05:36:03 50° W 05:41:31 10° N
BREEZE-M DEB (TANK) 2.0 05:37:19 46° SW 05:37:19 46° SW 05:41:19 10° SE
GPS 2-04 Rocket1 3.8 05:38:50 23° S 05:39:47 26° SSE 05:42:44 10° E
CZ-4B R/B 3.2 05:35:25 10° N 05:39:52 61° WNW 05:42:32 23° SSW
Tsikada Rocket 4.1 05:35:19 10° N 05:41:41 87° E 05:48:05 10° S
OAO 2 Rocket 3.2 05:40:48 29° WSW 05:43:19 89° NNW 05:48:19 10° ENE
Cosmos 1833 Rocket 3.1 05:42:52 25° SW 05:45:43 45° WNW 05:51:08 10° N
Cosmos 1470 Rocket 4.4 05:42:52 10° NNW 05:46:34 28° W 05:47:14 27° WSW
ATLAS 5 CENTAUR R/B 4.1 05:50:49 10° SSE 05:54:02 19° ESE 05:57:23 10° ENE
NOSS 3-1 (A) 4.1 05:46:55 10° NW 05:54:45 63° WSW 06:03:10 10° SSE
NOSS 3-3 (A) 4.2 05:52:49 10° SSW 05:58:48 69° ESE 06:05:12 10° NE
NOSS 3-3 (C) 4.2 05:52:51 10° SSW 05:58:49 68° ESE 06:05:12 10° NE
IUS-9 SRM-1 4.4 06:01:54 18° WSW 06:05:41 60° S 06:30:30 10° E
NOSS 2-1 (C) 3.9 06:02:15 10° SSW 06:05:54 53° ESE 06:09:40 10° NE
NOSS 2-1 (D) 3.8 06:02:20 10° SSW 06:06:00 55° ESE 06:09:47 10° NE
Cosmos 1980 Rocket 3.2 06:01:28 10° N 06:06:56 51° ENE 06:12:22 10° SE
Cosmos 1455 3.5 06:06:17 18° WSW 06:07:28 21° WNW 06:10:20 10° NNW
Cosmos 1869 Rocket 3.5 06:04:15 10° N 06:08:43 77° W 06:13:08 10° S
Cosmos 2084 4.3 06:07:39 17° WSW 06:10:05 29° NW 06:13:34 10° N
Cosmos 2242 Rocket 4.4 06:07:30 10° S 06:11:52 54° E 06:16:14 10° NNE
EO 1 Del DPAF 4.1 06:10:17 10° SSE 06:14:02 55° ENE 06:17:48 10° N
Cosmos 2278 4.2 06:09:32 10° NW 06:14:39 36° WSW 06:19:45 10° S
Timation 2 Rocket 4.0 06:08:53 10° SSW 06:14:45 61° WNW 06:20:47 10° NNE
IRS-1C Rocket 4.4 06:10:00 10° N 06:15:02 48° WNW 06:20:03 10° SW
PKM 3.6 06:13:33 10° SSW 06:16:51 62° SE 06:19:34 10° NE
USA 234 3.3 06:10:17 10° NE 06:16:52 86° SE 06:23:25 10° SW
Cosmos 482 Debris 4.2 06:17:12 10° NW 06:20:12 66° SW 06:25:22 10° SE
Cosmos 1697 Rocket 2.7 06:16:12 10° NNW 06:21:48 64° WSW 06:27:23 10° S
Lacrosse 4 Rocket 2.4 06:17:48 10° S 06:22:04 52° ESE 06:26:25 10° NE
Abrixas 3.3 06:20:20 11° W 06:22:22 23° SW 06:24:31 10° S
Cosmos 1862 3.9 06:23:15 10° N 06:27:16 62° E 06:31:17 10° SSE
NOAA 6 4.3 06:24:40 10° NNE 06:29:49 76° ESE 06:34:58 10° S
NOSS 2-1 (E) 3.1 06:27:04 10° SSW 06:30:48 81° WNW 06:34:45 10° NNE
PSLV R/B 3.2 06:31:44 10° WNW 06:34:57 83° NNE 06:38:14 10° ESE
Cosmos 2082 Rocket 3.9 06:32:05 10° W 06:35:30 16° WNW 06:38:56 10° NNW
Cosmos 1346 Rocket 3.7 06:32:41 10° S 06:36:30 54° E 06:40:24 10° NNE
ADEOS II 3.9 06:36:39 10° NW 06:38:56 13° WNW 06:41:14 10° W
Tiangong 2 3.7 06:37:31 10° NW 06:39:16 14° N 06:41:00 10° NNE
Cosmos 2056 Rocket 3.6 06:34:23 10° NNW 06:39:48 84° WSW 06:45:14 10° SSE
ATLAS 3B CENTAUR R/B 4.5 06:23:42 10° W 06:49:37 75° S 06:58:21 10° E
